Miscellaneous Local Product
Issued by NWS North Platte, NE

Home | Current Version | Previous Version | Text Only | Print | Product List | Glossary On
Versions: 1 2 3 4 5 6 7 8 9 10 11 12 13 14 15 16 17 18 19 20 21 22 23 24 25 26 27 28 29 30 31 32 33 34 35 36 37 38 39 40 41 42 43 44 45 46 47 48 49 50
745
AXUS43 KLBF 280310
MISLBF


WESTERN AND NORTH CENTRAL NEBRASKA HOURLY WEATHER ROUNDUP
NATIONAL WEATHER SERVICE NORTH PLATTE NE
1000 PM CDT WED JUL 27 2016

NOTE: "FAIR" INDICATES FEW OR NO CLOUDS BELOW 12,000 FEET WITH NO
SIGNIFICANT WEATHER AND/OR OBSTRUCTIONS TO VISIBILITY.

NOTE: STATIONS NOT REPORTING VARIABLES SUCH AS SKY/WEATHER OR
PRESSURE ARE PROVIDED BY RAWS AND APRS NETWORKS AND ARE NOT UNDER
NATIONAL WEATHER SERVICE QUALITY CONTROL.

...OBSERVATIONS IN AND NEAR THE EASTERN PANHANDLE OF NEBRASKA...

CITY           SKY/WX    TMP DP  RH WIND       PRES   REMARKS
PINE RIDGE     CLOUDY    69  64  84 NE7       30.16R
CHADRON        CLOUDY    73  61  65 E5        30.15R
ALLIANCE       CLOUDY    70  57  63 E7        30.16R
SIDNEY         CLOUDY    67  63  87 SE10      30.16R
CRESCENT LAKE    N/A     71  59  66 E10G20      N/A
$$

...OBSERVATIONS IN NORTHERN NEBRASKA AND FAR SOUTHERN SOUTH DAKOTA...

CITY           SKY/WX    TMP DP  RH WIND       PRES   REMARKS
WINNER         FAIR      66  62  87 S10       30.02F
VALENTINE      CLOUDY    64  58  80 MISG      30.12S
THEDFORD       CLEAR     66  60  78 E6        30.16R
AINSWORTH      MOCLDY    65  57  76 N8        30.14R
O`NEILL        CLOUDY    66  59  78 NW22G35   30.10R
ORD            PTCLDY    68  63  84 N7        30.08R
BROKEN BOW     CLEAR     66  63  90 N5        30.12R
VALENTINE NWR    N/A     69  63  82 NE8         N/A
BUTTE            N/A     65  59  81 W6G13       N/A
HALSEY           N/A     69  58  67 CALM        N/A
EWING            N/A     66  64  93 NW5         N/A
$$

...OBSERVATIONS IN SOUTHWEST NEBRASKA AND FAR NORTHEAST COLORADO...

CITY           SKY/WX    TMP DP  RH WIND       PRES   REMARKS
WRAY           FAIR      81  59  47 NE13      30.13R
HOLYOKE        TSTM      77  61  57 SE12      30.11F
IMPERIAL       CLOUDY    77  60  55 NE9       30.12R
OGALLALA       CLOUDY    76  62  61 E6        30.11S
NORTH PLATTE   CLEAR     69  62  78 E3        30.11R
MCCOOK         PTCLDY    76  67  73 E7        30.07R
LEXINGTON      CLEAR     74  69  83 NE6       30.09R
STAPLETON        N/A     67  62  84 CALM        N/A
GOTHENBURG       N/A     77  65  66 N6          N/A
CALLAWAY         N/A     69  65  89 CALM        N/A
$$

...OBSERVATIONS IN CENTRAL LINCOLN COUNTY AREA...

CITY           SKY/WX    TMP DP  RH WIND       PRES   REMARKS
N.P. AIRPORT   CLEAR     69  62  78 E3        30.11R
N.P. DOWNTOWN    N/A     72  62  71 E3          N/A
N.P. SOUTHEAST   N/A     72  62  71 CALM        N/A
N.P. HILLCREST   N/A     70  62  74 E12         N/A
$$

...SOME OBSERVATIONS FROM AROUND THE REGION...

CITY           SKY/WX    TMP DP  RH WIND       PRES   REMARKS
DENVER         CLOUDY    76  57  51 E22       30.17R
LARAMIE        CLEAR     68  49  50 E8        30.30R
CHEYENNE       CLEAR     68  57  68 E5        30.24R
SCOTTSBLUFF    CLEAR     75  58  55 NE13      30.14R
RAPID CITY     PTCLDY    67  58  72 E5        30.15R
BISMARCK       CLOUDY    70  61  73 E8        30.12R
PIERRE         PTCLDY    69  63  81 N6        30.06R
SIOUX FALLS    CLOUDY    71  64  78 N7        30.03S
OMAHA          CLOUDY    77  71  82 N5        29.97R
GRAND ISLAND   CLOUDY    75  67  76 N5        30.05R
KANSAS CITY    MOCLDY    79  71  76 NE5       29.95R
WICHITA        PTCLDY    84  70  62 E7        29.95R
OKLAHOMA CITY  PTCLDY    74  73  97 S3        29.95R
DALLAS         CLOUDY    87  70  56 S13       29.93R HX  92
AMARILLO       CLEAR     75  54  47 NE22G37   30.18R
DODGE CITY     CLEAR     74  70  87 CALM      30.04R
HAYS           CLEAR     81  64  57 NE5       30.02R
GOODLAND       CLOUDY    74  65  73 SE5       30.10R
$$




USA.gov is the U.S. government's official web portal to all federal, state and local government web resources and services.